CEB912 RPMR-RPVM

Flight info

Callsign CEB912
Flight time 0h 47m
Altitude 31000
Route LATIA4P LATIA W6 LUMVI DCT COBOL COBOL3P
Aircraft A320/M-SDE3FGHIRWY/LB1

Departure

Time 2026-05-06 08:04
Airport General Santos International Airport (RPMR)

Arrival

Time 2026-05-06 08:51
Airport Mactan Cebu International Airport (RPVM)
Time Latitude Longitude Altitude Speed Heading
2026-05-06 07:54 6.05580 125.09897 514 ft 0 kts 173°
2026-05-06 07:55 6.05564 125.09899 514 ft 10 kts 173°
2026-05-06 07:55 6.05484 125.09909 514 ft 11 kts 173°
2026-05-06 07:55 6.05424 125.09889 514 ft 8 kts 246°
2026-05-06 07:56 6.05410 125.09825 514 ft 10 kts 261°
2026-05-06 07:56 6.05402 125.09760 515 ft 0 kts 264°
2026-05-06 07:56 6.05402 125.09754 515 ft 0 kts 264°
2026-05-06 07:59 6.05400 125.09743 515 ft 8 kts 263°
2026-05-06 07:59 6.05372 125.09669 514 ft 12 kts 204°
2026-05-06 08:00 6.05313 125.09675 514 ft 8 kts 171°
2026-05-06 08:00 6.05263 125.09685 514 ft 7 kts 169°
2026-05-06 08:00 6.05196 125.09694 513 ft 16 kts 173°
2026-05-06 08:00 6.05034 125.09712 515 ft 30 kts 172°
2026-05-06 08:01 6.04794 125.09742 515 ft 40 kts 174°
2026-05-06 08:01 6.04546 125.09774 515 ft 29 kts 167°
2026-05-06 08:01 6.04506 125.09863 514 ft 10 kts 70°
2026-05-06 08:01 6.04502 125.09932 514 ft 9 kts 118°
2026-05-06 08:02 6.04450 125.09950 514 ft 7 kts 172°
2026-05-06 08:02 6.04405 125.09942 514 ft 7 kts 217°
2026-05-06 08:02 6.04387 125.09875 514 ft 11 kts 262°
2026-05-06 08:02 6.04397 125.09796 515 ft 12 kts 314°
2026-05-06 08:03 6.04483 125.09775 515 ft 16 kts 354°
2026-05-06 08:03 6.04809 125.09738 515 ft 84 kts 353°
2026-05-06 08:03 6.05607 125.09638 513 ft 144 kts 352°
2026-05-06 08:03 6.06677 125.09462 993 ft 153 kts 348°
2026-05-06 08:04 6.07761 125.09317 1535 ft 168 kts 355°
2026-05-06 08:04 6.09014 125.09311 1947 ft 189 kts
2026-05-06 08:04 6.10369 125.09629 2376 ft 212 kts 19°
2026-05-06 08:04 6.11786 125.10259 2768 ft 235 kts 29°
2026-05-06 08:05 6.13164 125.11187 3179 ft 258 kts 39°
2026-05-06 08:05 6.14459 125.12502 3864 ft 269 kts 51°
2026-05-06 08:05 6.15588 125.14006 4818 ft 269 kts 52°
2026-05-06 08:05 6.16812 125.15416 5749 ft 269 kts 38°
2026-05-06 08:06 6.18468 125.16290 6614 ft 272 kts 14°
2026-05-06 08:06 6.20358 125.16377 7413 ft 277 kts 349°
2026-05-06 08:06 6.22213 125.15793 8224 ft 281 kts 342°
2026-05-06 08:06 6.24053 125.15147 9064 ft 284 kts 342°
2026-05-06 08:07 6.25932 125.14490 9883 ft 287 kts 342°
2026-05-06 08:07 6.27860 125.13819 10370 ft 303 kts 342°
2026-05-06 08:07 6.29924 125.13106 10646 ft 323 kts 342°
2026-05-06 08:07 6.32087 125.12358 11216 ft 332 kts 342°
2026-05-06 08:08 6.34282 125.11599 11907 ft 336 kts 342°
2026-05-06 08:08 6.36510 125.10828 12602 ft 340 kts 342°
2026-05-06 08:08 6.38764 125.10049 13286 ft 344 kts 342°
2026-05-06 08:08 6.41012 125.09271 13921 ft 348 kts 342°
2026-05-06 08:09 6.43310 125.08475 14496 ft 352 kts 342°
2026-05-06 08:09 6.45643 125.07667 15049 ft 356 kts 342°
2026-05-06 08:09 6.47997 125.06849 15605 ft 360 kts 342°
2026-05-06 08:09 6.50386 125.06021 16156 ft 365 kts 342°
2026-05-06 08:10 6.52796 125.05187 16709 ft 369 kts 342°
2026-05-06 08:10 6.55238 125.04342 17238 ft 373 kts 342°
2026-05-06 08:10 6.57711 125.03484 17794 ft 377 kts 342°
2026-05-06 08:10 6.60204 125.02621 18287 ft 381 kts 342°
2026-05-06 08:11 6.62731 125.01745 18753 ft 384 kts 342°
2026-05-06 08:11 6.65233 125.00876 19222 ft 387 kts 342°
2026-05-06 08:11 6.67791 124.99986 19703 ft 390 kts 342°
2026-05-06 08:11 6.70371 124.99091 20171 ft 393 kts 342°
2026-05-06 08:12 6.72971 124.98193 20635 ft 396 kts 342°
2026-05-06 08:12 6.75592 124.97286 21102 ft 399 kts 342°
2026-05-06 08:12 6.78229 124.96374 21555 ft 402 kts 342°
2026-05-06 08:12 6.80891 124.95454 22002 ft 405 kts 342°
2026-05-06 08:13 6.83563 124.94529 22431 ft 408 kts 342°
2026-05-06 08:13 6.86257 124.93596 22862 ft 411 kts 342°
2026-05-06 08:13 6.88967 124.92654 23298 ft 413 kts 342°
2026-05-06 08:13 6.91735 124.91858 23654 ft 415 kts 349°
2026-05-06 08:14 6.94574 124.91269 24001 ft 417 kts 349°
2026-05-06 08:14 6.97423 124.90680 24365 ft 419 kts 349°
2026-05-06 08:14 7.00287 124.90092 24718 ft 421 kts 349°
2026-05-06 08:14 7.03171 124.89502 25070 ft 423 kts 349°
2026-05-06 08:15 7.06021 124.88920 25427 ft 425 kts 349°
2026-05-06 08:15 7.08928 124.88325 25783 ft 427 kts 349°
2026-05-06 08:15 7.11858 124.87725 26140 ft 429 kts 349°
2026-05-06 08:15 7.14799 124.87120 26487 ft 432 kts 349°
2026-05-06 08:16 7.17747 124.86512 26833 ft 434 kts 349°
2026-05-06 08:16 7.20716 124.85896 27169 ft 436 kts 349°
2026-05-06 08:16 7.23703 124.85278 27507 ft 438 kts 349°
2026-05-06 08:16 7.26692 124.84660 27836 ft 440 kts 349°
2026-05-06 08:17 7.29660 124.84047 28152 ft 442 kts 349°
2026-05-06 08:17 7.32682 124.83422 28467 ft 444 kts 349°
2026-05-06 08:17 7.35715 124.82793 28792 ft 446 kts 349°
2026-05-06 08:17 7.38764 124.82163 29109 ft 448 kts 349°
2026-05-06 08:18 7.41832 124.81529 29421 ft 451 kts 349°
2026-05-06 08:18 7.44911 124.80893 29743 ft 453 kts 349°
2026-05-06 08:18 7.48012 124.80252 30022 ft 455 kts 349°
2026-05-06 08:18 7.51119 124.79609 30280 ft 457 kts 349°
2026-05-06 08:19 7.54244 124.78965 30538 ft 459 kts 349°
2026-05-06 08:19 7.57382 124.78322 30755 ft 460 kts 349°
2026-05-06 08:19 7.63543 124.77056 30840 ft 436 kts 349°
2026-05-06 08:20 7.69356 124.75853 30855 ft 425 kts 349°
2026-05-06 08:20 7.75146 124.74654 30864 ft 424 kts 349°
2026-05-06 08:21 7.80920 124.73453 30873 ft 424 kts 349°
2026-05-06 08:21 7.86712 124.72259 30881 ft 424 kts 349°
2026-05-06 08:22 7.92498 124.71067 30886 ft 424 kts 349°
2026-05-06 08:22 7.98284 124.69868 30886 ft 424 kts 349°
2026-05-06 08:23 8.04062 124.68672 30895 ft 424 kts 349°
2026-05-06 08:23 8.09807 124.67487 30885 ft 424 kts 349°
2026-05-06 08:24 8.15584 124.66292 30880 ft 423 kts 348°
2026-05-06 08:24 8.20777 124.65217 30872 ft 423 kts 349°
2026-05-06 08:25 8.26541 124.64024 30862 ft 423 kts 348°
2026-05-06 08:25 8.32308 124.62830 30854 ft 422 kts 348°
2026-05-06 08:26 8.38076 124.61637 30853 ft 423 kts 348°
2026-05-06 08:26 8.43637 124.59836 30844 ft 423 kts 333°
2026-05-06 08:27 8.48852 124.57064 30833 ft 423 kts 332°
2026-05-06 08:27 8.54073 124.54306 30828 ft 424 kts 332°
2026-05-06 08:28 8.59276 124.51566 30820 ft 423 kts 332°
2026-05-06 08:28 8.64388 124.48876 30817 ft 423 kts 332°
2026-05-06 08:29 8.69622 124.46115 30814 ft 424 kts 332°
2026-05-06 08:29 8.74850 124.43348 30799 ft 424 kts 332°
2026-05-06 08:30 8.77465 124.41962 30288 ft 423 kts 332°
2026-05-06 08:30 8.80066 124.40586 29780 ft 421 kts 332°
2026-05-06 08:30 8.82625 124.39235 29285 ft 417 kts 333°
2026-05-06 08:30 8.85184 124.37885 28817 ft 413 kts 333°
2026-05-06 08:31 8.87712 124.36549 28366 ft 408 kts 333°
2026-05-06 08:31 8.90214 124.35227 27919 ft 404 kts 333°
2026-05-06 08:31 8.92700 124.33913 27470 ft 400 kts 333°
2026-05-06 08:31 8.95163 124.32609 27021 ft 396 kts 333°
2026-05-06 08:32 8.97598 124.31317 26555 ft 394 kts 333°
2026-05-06 08:32 9.00019 124.30034 26104 ft 391 kts 333°
2026-05-06 08:32 9.02393 124.28775 25638 ft 390 kts 334°
2026-05-06 08:32 9.04800 124.27499 25160 ft 389 kts 334°
2026-05-06 08:33 9.07196 124.26232 24674 ft 388 kts 334°
2026-05-06 08:33 9.09589 124.24969 24181 ft 388 kts 334°
2026-05-06 08:33 9.11980 124.23708 23684 ft 388 kts 334°
2026-05-06 08:33 9.14369 124.22445 23140 ft 388 kts 334°
2026-05-06 08:34 9.15954 124.21604 22787 ft 387 kts 334°
2026-05-06 08:34 9.20699 124.19090 21799 ft 383 kts 334°
2026-05-06 08:34 9.23051 124.17845 21338 ft 381 kts 334°
2026-05-06 08:35 9.25378 124.16611 20867 ft 377 kts 334°
2026-05-06 08:35 9.27699 124.15377 20394 ft 375 kts 334°
2026-05-06 08:35 9.30010 124.14147 19931 ft 374 kts 334°
2026-05-06 08:35 9.32313 124.12921 19463 ft 373 kts 334°
2026-05-06 08:36 9.34608 124.11705 19005 ft 373 kts 334°
2026-05-06 08:36 9.36895 124.10492 18621 ft 368 kts 334°
2026-05-06 08:36 9.39136 124.09302 18095 ft 358 kts 334°
2026-05-06 08:36 9.41305 124.08149 17625 ft 346 kts 334°
2026-05-06 08:37 9.43395 124.07039 17201 ft 333 kts 334°
2026-05-06 08:37 9.45417 124.05969 16812 ft 322 kts 334°
2026-05-06 08:37 9.47381 124.04955 16431 ft 311 kts 339°
2026-05-06 08:37 9.49404 124.04299 16067 ft 301 kts 349°
2026-05-06 08:38 9.51411 124.03820 15721 ft 300 kts 348°
2026-05-06 08:38 9.53435 124.03326 15370 ft 298 kts 348°
2026-05-06 08:38 9.55451 124.02827 15016 ft 296 kts 348°
2026-05-06 08:38 9.57461 124.02329 14668 ft 299 kts 347°
2026-05-06 08:39 9.59489 124.01827 14309 ft 300 kts 347°
2026-05-06 08:39 9.61526 124.01323 13947 ft 303 kts 347°
2026-05-06 08:39 9.63587 124.00816 13574 ft 305 kts 347°
2026-05-06 08:39 9.65652 124.00307 13181 ft 306 kts 347°
2026-05-06 08:40 9.67729 123.99793 12803 ft 307 kts 347°
2026-05-06 08:40 9.69800 123.99280 12427 ft 307 kts 348°
2026-05-06 08:40 9.71881 123.98765 12050 ft 307 kts 348°
2026-05-06 08:40 9.73932 123.98260 11672 ft 308 kts 348°
2026-05-06 08:41 9.76041 123.97741 11274 ft 308 kts 348°
2026-05-06 08:41 9.78098 123.97236 10889 ft 308 kts 348°
2026-05-06 08:41 9.80183 123.96722 10518 ft 307 kts 348°
2026-05-06 08:41 9.82243 123.96213 10235 ft 303 kts 348°
2026-05-06 08:42 9.84292 123.95706 9881 ft 303 kts 349°
2026-05-06 08:42 9.86313 123.95206 9526 ft 296 kts 349°
2026-05-06 08:42 9.88292 123.94716 9025 ft 288 kts 349°
2026-05-06 08:42 9.90209 123.94240 8618 ft 282 kts 349°
2026-05-06 08:43 9.92115 123.93770 8220 ft 281 kts 349°
2026-05-06 08:43 9.93974 123.93313 7815 ft 282 kts 349°
2026-05-06 08:43 9.95880 123.92844 7400 ft 282 kts 349°
2026-05-06 08:43 9.97789 123.92372 6982 ft 283 kts 349°
2026-05-06 08:44 9.99704 123.91900 6548 ft 283 kts 348°
2026-05-06 08:44 10.01619 123.91428 6149 ft 282 kts 348°
2026-05-06 08:44 10.03520 123.90957 5706 ft 282 kts 348°
2026-05-06 08:44 10.05414 123.90488 5285 ft 281 kts 348°
2026-05-06 08:45 10.07222 123.89799 4948 ft 275 kts 333°
2026-05-06 08:45 10.08759 123.88648 4320 ft 278 kts 317°
2026-05-06 08:45 10.10112 123.87251 3885 ft 276 kts 316°
2026-05-06 08:45 10.11453 123.85873 3317 ft 271 kts 316°
2026-05-06 08:46 10.12748 123.84547 3089 ft 257 kts 317°
2026-05-06 08:46 10.14166 123.83579 2991 ft 239 kts 345°
2026-05-06 08:46 10.15730 123.83501 2894 ft 224 kts 15°
2026-05-06 08:46 10.17060 123.84210 2791 ft 214 kts 43°
2026-05-06 08:47 10.18118 123.85277 2691 ft 214 kts 45°
2026-05-06 08:47 10.19174 123.86342 2588 ft 213 kts 44°
2026-05-06 08:47 10.20226 123.87399 2482 ft 213 kts 44°
2026-05-06 08:47 10.21279 123.88456 2376 ft 214 kts 44°
2026-05-06 08:48 10.22339 123.89513 2063 ft 212 kts 44°
2026-05-06 08:48 10.23391 123.90562 1778 ft 212 kts 44°
2026-05-06 08:48 10.24429 123.91600 1504 ft 204 kts 45°
2026-05-06 08:48 10.25393 123.92565 1262 ft 185 kts 44°
2026-05-06 08:49 10.26275 123.93447 1004 ft 171 kts 44°
2026-05-06 08:49 10.27071 123.94243 807 ft 152 kts 45°
2026-05-06 08:49 10.27793 123.94966 587 ft 141 kts 45°
2026-05-06 08:49 10.28462 123.95655 376 ft 132 kts 44°
2026-05-06 08:50 10.29100 123.96308 243 ft 130 kts 43°
2026-05-06 08:50 10.29735 123.96932 87 ft 128 kts 44°
2026-05-06 08:50 10.30343 123.97535 40 ft 111 kts 45°
2026-05-06 08:50 10.30797 123.97985 35 ft 67 kts 44°
2026-05-06 08:51 10.31024 123.98208 37 ft 31 kts 46°
2026-05-06 08:51 10.31153 123.98299 38 ft 19 kts 25°
2026-05-06 08:51 10.31249 123.98336 39 ft 15 kts 20°
2026-05-06 08:51 10.31328 123.98354 39 ft 9 kts 357°
2026-05-06 08:52 10.31389 123.98321 39 ft 10 kts 314°
2026-05-06 08:52 10.31425 123.98286 38 ft 4 kts 316°
2026-05-06 08:52 10.31426 123.98285 39 ft 0 kts 316°
2026-05-06 08:52 10.31465 123.98247 39 ft 17 kts 316°
2026-05-06 08:53 10.31557 123.98150 39 ft 15 kts 304°
2026-05-06 08:53 10.31533 123.98075 39 ft 7 kts 226°
2026-05-06 08:53 10.31504 123.98039 39 ft 5 kts 252°
2026-05-06 08:53 10.31518 123.98017 36 ft 3 kts 313°
2026-05-06 08:54 10.31533 123.98002 39 ft 3 kts 315°
2026-05-06 08:54 10.31545 123.97990 39 ft 2 kts 314°
2026-05-06 08:54 10.31554 123.97981 39 ft 2 kts 314°
2026-05-06 08:54 10.31560 123.97974 39 ft 1 kts 314°
2026-05-06 08:55 10.31561 123.97974 39 ft 0 kts 314°